星链-30310 (STARLINK-30310 )

导读 | 星芒AI

STARLINK-30310 是 SpaceX Starlink 项目中的一颗低轨通信卫星,属于第三代 Starlink 卫星(v1.5 或 v2 架构)。该卫星于 2023 年发射,旨在为全球用户提供高速互联网服务。它运行在约 550 公里的轨道高度,具备先进通信设备和激光链路,支持卫星间直接通信,提升网络效率与覆盖范围。作为 Starlink 项目的一部分,STARLINK-30310 有助于扩展 SpaceX 在全球宽带市场的影响力,并为偏远地区提供稳定网络连接。

基本信息
目录编号:
57733
目录名称:
STARLINK-30310
国际标识:
2023-131B
轨道中心:
EARTH
卫星名称:
星链-30310
卫星全名:
星链-30310 (STARLINK-30310 )
卫星状态:
在轨 (已飞行840 天)
发射日期:
2023-09-01 UTC
国别 :
美国 (US)
星等 :
--
轨道信息
数据来源 国际轨道数据
星历时间: 2025-12-18T18:04:09+0800
16小时前
查看轨道信息
半长轴: 6937.222km
偏心率: 0.000095
轨道倾角: 43.002°
近地点辐角 272.068°
升交点赤经 252.995°
平近点角 88.006°
近地点: 558.427km
远地点: 559.747km
周期: 95.838分钟
每日圈数: 15.025343
详细信息
固有亮度:
5
最大亮度:
0.3
卫星平台:
Starlink v2.0 mini
覆盖范围:
全球
运营商:
太空探索技术公司
运营商所在国:
美国
制造商(研发单位):
太空探索技术公司
制造商所在国:
美国
使用方式:
暂无
卫星简介
星链(Starlink)计划是由太空探索技术公司(SpaceX)提出的一个巨型低轨卫星互联网星座项目,计划在2019年至2024年间在太空搭建由约1.2万颗卫星组成的“星链”网络,其中1584颗将部署在地球上空550千米处的近地轨道,并从2020年开始工作。该卫星仍在工作。
2D轨道图
3D轨道图
轨道高度分析图
轨道倾角分析图
轨道综合分析图
查看轨道综合分析图